User: anonymous   Login
Location: Newark
(25.6108°S, 54.5803°W)
Time: 00:55:58
(UTC+00:00)
Language:

Tiros 1 - Orbit

View from above orbital plane
View from above orbital plane
View from above satellite
View from above satellite

Ground track
Ground track

The orbit data is extracted from the following two-line orbital elements,

1    29U 60002B   20300.60331534 -.00000097 +00000-0 +16635-4 0  9991
2    29 048.3809 049.6699 0023519 073.6104 286.7391 14.74378768237899
Epoch (UTC): 26 October 2020 14:28:46
Eccentricity: 0.0023519
inclination: 48.3809°
perigee height: 630 km
apogee height: 663 km
right ascension of ascending node: 49.6699°
argument of perigee: 73.6104°
revolutions per day: 14.74378768
mean anomaly at epoch: 286.7391°
orbit number at epoch: 23789

The dashed part of the orbit path shows where the satellite is in the earth's shadow,  

DLR